Starlink 30812

operational
NORAD ID: 58168 Int'l Des: 2023-166 Owner: SPXS Country: US Constellation: starlink
LEOCIRCULAR

About Starlink 30812

Description loading...

Live Position

Loading 3D Globe...

Upcoming Passes

Altitude History

Altitude vs Time

uPlot chart will show altitude changes over time

Two-Line Element Set

1 58168U 23166U 26034.20917567 -.00000929 00000-0 -19249-4 0 9999
2 58168 53.1617 19.5307 0001340 92.3134 267.8020 15.30188290127752
Epoch: Feb 3, 2026 • Age: 11 hours

Current Status

Altitude 480.3 km
Velocity 7.63 km/s
Sub-Earth Point 50.28°N, 62.51°E
Launch Date Oct 29, 2023
Age 2.2 years
Type internet

Technical Details

Classification Payload
Mass 730.00 kg
Dry Mass 700.00 kg
Total Mass 730.00 kg
Length 0.30 m
Diameter 4.10 m
Span 29.00 m
Shape Box + pan
Manufacturer SPXS
Bus Type Starlink V2M
Phase Status In Orbit
Owner/State SPXS/US

Large Constellations

Loading constellations...